Simultaneous Nadir Overpasses (SNOs) Predictions

Prediction of SNOs between LANDSAT-8 and NOAA-19 Satellite Orbit:

Table of predicted SNOs for the next 14.0 days since TLE Epoch: 1/16/2015
Index Date (LANDSAT-8) Time (LANDSAT-8) Lat,Lon (LANDSAT-8) SZA (LANDSAT-8 ) Date (NOAA-19) Time (NOAA-19) Lat,Lon (NOAA-19) SZA (NOAA-19 ) Distance(km) Time Diff (sec)
1 01/17/2015 19:19:09 72.95,-108.85 93.55 01/17/2015 19:17:57 73.02,-109.86 93.63 33.54 72
2 01/17/2015 20:08:42 -72.67, 58.24 86.74 01/17/2015 20:08:48 -72.65, 58.21 86.76 2.33 6
3 01/20/2015 00:52:57 -72.72, -12.73 87.14 01/20/2015 00:52:22 -72.72, -12.80 87.14 2.44 35
4 01/20/2015 01:42:25 72.58, 154.65 92.72 01/20/2015 01:43:25 72.61, 154.66 92.75 3.56 60
5 01/22/2015 05:37:11 -72.82, -83.62 87.53 01/22/2015 05:35:58 -72.89, -84.03 87.44 15.94 73
6 01/22/2015 06:26:39 72.67, 83.75 92.32 01/22/2015 06:26:59 72.66, 83.69 92.32 2.15 20
7 01/24/2015 11:10:54 72.69, 12.72 91.83 01/24/2015 11:10:33 72.72, 12.71 91.87 3.31 21
8 01/24/2015 12:00:23 -72.63,-179.77 88.25 01/24/2015 12:01:28 -72.62,-179.81 88.25 1.45 65
9 01/26/2015 15:55:08 72.75, -58.24 91.35 01/26/2015 15:54:06 72.74, -58.17 91.34 2.57 62
10 01/26/2015 16:44:37 -72.68, 109.27 88.73 01/26/2015 16:45:01 -72.66, 109.27 88.76 3.07 24
11 01/28/2015 21:28:51 -72.72, 38.29 89.26 01/28/2015 21:28:35 -72.74, 38.23 89.24 3.02 16




NCC Satellite Simultaneous Nadir Overpasses (SNOs) Prediction Service
